GW2708 Weather Reports


time (UTC)temp
F
wind
direction
speed
knots
gust
knots
rain 1hr
in
rain 24hr
in
rain mn
in
humidity
%
barometer
mb
20260504002518 45 0 0.0 0.0 0.00 0.02 0.02 77 1002.2
20260504002018 45 0 0.0 0.9 0.00 0.02 0.02 77 1002.1
20260504001545 45 0 0.0 1.7 0.00 0.02 0.02 77 1002.2
20260504001016 45 212 0.0 1.7 0.00 0.02 0.02 76 1002.2
20260504000518 45 231 0.9 1.7 0.00 0.02 0.02 76 1002.2
20260504000044 45 231 0.0 3.5 0.00 0.02 0.02 76 1002.1
20260503235518 46 224 0.9 3.5 0.00 0.02 0.02 76 1002.1
20260503235020 46 231 0.9 3.5 0.00 0.02 0.02 76 1002.0
20260503234535 46 205 1.7 5.2 0.00 0.02 0.02 75 1002.1
20260503234018 46 214 2.6 5.2 0.00 0.02 0.02 75 1002.2
20260503233518 47 219 2.6 6.1 0.00 0.02 0.02 76 1002.4
20260503233035 47 217 3.5 6.1 0.00 0.02 0.02 74 1002.4
20260503232519 47 203 1.7 5.2 0.00 0.02 0.02 75 1002.4
20260503232018 48 248 2.6 5.2 0.00 0.02 0.02 75 1002.5
20260503231542 48 173 2.6 4.3 0.00 0.02 0.02 75 1002.4
20260503231018 48 216 1.7 6.1 0.00 0.02 0.02 74 1002.2
20260503230519 48 226 2.6 6.1 0.00 0.02 0.02 73 1002.4
20260503230036 48 198 1.7 3.5 0.00 0.02 0.02 73 1002.4
20260503225520 48 195 0.9 4.3 0.00 0.02 0.02 72 1002.2
20260503225018 48 175 1.7 4.3 0.00 0.02 0.02 72 1002.3
20260503224538 48 207 1.7 4.3 0.00 0.02 0.02 72 1002.4
20260503224018 48 210 1.7 5.2 0.00 0.02 0.02 72 1002.3
20260503223519 48 199 1.7 5.2 0.00 0.02 0.02 73 1002.4
20260503223031 48 219 1.7 5.2 0.00 0.02 0.02 72 1002.5
20260503222517 48 216 2.6 5.2 0.00 0.02 0.02 71 1002.6
20260503222017 48 202 2.6 4.3 0.00 0.02 0.02 71 1002.6
20260503221547 48 174 1.7 5.2 0.00 0.02 0.02 70 1002.7
20260503221019 48 210 1.7 5.2 0.00 0.02 0.02 70 1002.9
20260503220516 48 216 3.5 5.2 0.00 0.02 0.02 69 1002.9
20260503220035 48 235 2.6 5.2 0.00 0.02 0.02 68 1002.9
20260503215519 48 236 1.7 5.2 0.00 0.02 0.02 69 1002.9
20260503215018 48 264 2.6 5.2 0.00 0.02 0.02 68 1002.9
20260503214535 48 256 2.6 5.2 0.00 0.02 0.02 68 1003.0
20260503214018 49 166 1.7 5.2 0.00 0.02 0.02 69 1003.1
20260503213518 49 235 2.6 6.1 0.00 0.02 0.02 67 1003.1
20260503213035 49 231 2.6 7.0 0.00 0.02 0.02 67 1003.0
20260503212521 49 212 4.3 7.0 0.00 0.02 0.02 66 1003.2
20260503212018 49 217 5.2 7.0 0.00 0.02 0.02 67 1003.2
20260503211535 49 243 1.7 7.0 0.00 0.02 0.02 70 1003.2
20260503211017 48 197 2.6 7.0 0.00 0.02 0.02 68 1003.3
20260503210518 48 162 2.6 7.0 0.00 0.02 0.02 70 1003.3
20260503210048 48 141 2.6 7.0 0.00 0.02 0.02 68 1003.3
20260503205519 48 208 2.6 6.1 0.00 0.02 0.02 70 1003.4
20260503205018 48 203 2.6 7.8 0.00 0.02 0.02 71 1003.4
20260503204542 48 205 3.5 7.8 0.00 0.02 0.02 71 1003.5
20260503204018 47 180 1.7 5.2 0.00 0.02 0.02 70 1003.4
20260503203522 47 219 2.6 5.2 0.00 0.02 0.02 73 1003.4
20260503203037 47 139 2.6 7.0 0.00 0.02 0.02 73 1003.5
20260503202519 46 144 3.5 7.0 0.00 0.02 0.02 76 1003.6
20260503202017 45 164 1.7 5.2 0.00 0.02 0.02 78 1003.8
20260503201536 44 162 2.6 5.2 0.00 0.02 0.02 78 1003.8
20260503201020 43 229 2.6 5.2 0.00 0.02 0.02 79 1004.0
20260503200519 43 222 2.6 5.2 0.00 0.02 0.02 78 1004.2
20260503200044 43 198 2.6 5.2 0.00 0.02 0.02 82 1004.2
20260503195517 42 224 1.7 6.1 0.00 0.02 0.02 85 1004.4
20260503195018 41 223 2.6 6.1 0.00 0.02 0.02 86 1004.5
20260503194536 41 188 3.5 6.1 0.00 0.02 0.02 85 1004.6
20260503194016 40 205 2.6 8.7 0.00 0.02 0.02 86 1004.6
20260503193516 40 164 2.6 8.7 0.00 0.02 0.02 87 1004.7
20260503193035 39 249 5.2 8.7 0.00 0.02 0.02 86 1004.8
20260503192519 39 134 4.3 7.8 0.00 0.02 0.02 86 1004.9
20260503192020 39 226 2.6 5.2 0.00 0.02 0.02 88 1005.1
20260503191535 39 214 1.7 5.2 0.00 0.02 0.02 88 1005.1
20260503191022 39 228 2.6 6.1 0.00 0.02 0.02 87 1005.2
20260503190519 39 183 2.6 11.3 0.00 0.02 0.02 87 1005.3
20260503190043 39 244 2.6 11.3 0.00 0.02 0.02 86 1005.3
20260503185518 39 239 4.3 11.3 0.00 0.02 0.02 86 1005.4
20260503185021 40 198 4.3 8.7 0.00 0.02 0.02 85 1005.4
20260503184537 40 199 4.3 7.8 0.00 0.02 0.02 84 1005.4
20260503184019 40 222 4.3 7.8 0.00 0.02 0.02 83 1005.4
20260503183516 41 207 1.7 5.2 0.01 0.02 0.02 84 1005.3
20260503183037 41 193 0.9 5.2 0.01 0.02 0.02 83 1005.3
20260503182517 41 229 1.7 4.3 0.01 0.02 0.02 83 1005.4
20260503182018 41 144 1.7 4.3 0.02 0.02 0.02 82 1005.4
20260503181536 41 132 0.9 3.5 0.02 0.02 0.02 82 1005.4
20260503181018 41 170 0.9 4.3 0.02 0.02 0.02 82 1005.4
20260503180520 41 204 1.7 4.3 0.01 0.01 0.01 82 1005.4
20260503180035 41 191 0.9 3.5 0.01 0.01 0.01 83 1005.4
20260503175517 41 184 0.9 5.2 0.01 0.01 0.01 81 1005.4
20260503175018 41 155 0.9 5.2 0.01 0.01 0.01 82 1005.5
20260503174534 41 195 3.5 8.7 0.01 0.01 0.01 80 1005.6
20260503174022 41 133 2.6 8.7 0.01 0.01 0.01 79 1005.7
20260503173519 41 226 3.5 8.7 0.00 0.00 0.00 78 1005.8
20260503173049 42 229 3.5 7.8 0.00 0.00 0.00 77 1005.8
20260503172515 42 153 3.5 9.6 0.00 0.00 0.00 76 1005.8
20260503172017 42 184 4.3 9.6 0.00 0.00 0.00 75 1005.8
20260503171538 43 231 2.6 7.0 0.00 0.00 0.00 76 1005.9
20260503171018 43 248 2.6 7.0 0.00 0.00 0.00 74 1005.9
20260503170518 43 257 0.9 5.2 0.00 0.00 0.00 73 1005.9
20260503150516 48 223 4.3 11.3 0.00 0.00 0.00 41 1007.1
20260503131018 42 117 0.9 1.7 0.00 0.00 0.00 72 1008.1
20260503130519 41 158 0.0 1.7 0.00 0.00 0.00 73 1008.2
20260503110521 31 310 0.0 0.9 0.00 0.00 0.00 80 1008.5
20260503081549 32 307 0.0 0.9 0.00 0.00 0.00 74 1009.6
20260503081021 32 307 0.9 1.7 0.00 0.00 0.00 73 1009.7
20260503080521 32 317 0.0 1.7 0.00 0.00 0.00 73 1009.6
20260503072519 33 326 0.9 1.7 0.00 0.00 0.00 70 1009.9
20260503072017 34 275 0.9 1.7 0.00 0.00 0.00 70 1009.9
20260503071541 34 316 0.9 2.6 0.00 0.00 0.00 69 1009.9
20260503071019 34 301 0.9 2.6 0.00 0.00 0.00 69 1010.0
20260503070517 34 338 0.9 3.5 0.00 0.00 0.00 68 1009.9
20260503055023 36 300 2.6 5.2 0.00 0.00 0.00 64 1010.4
20260503054539 36 294 2.6 7.0 0.00 0.00 0.00 63 1010.3
20260503054020 36 188 1.7 7.0 0.00 0.00 0.00 62 1010.4
20260503053518 36 304 1.7 6.1 0.00 0.00 0.00 60 1010.4
20260503053036 36 307 1.7 7.0 0.00 0.00 0.00 59 1010.5
20260503052524 37 326 2.6 7.0 0.00 0.00 0.00 58 1010.4
20260503052017 37 266 1.7 6.1 0.00 0.00 0.00 58 1010.4
20260503051536 37 284 2.6 6.1 0.00 0.00 0.00 56 1010.5
20260503051017 37 289 2.6 7.8 0.00 0.00 0.00 56 1010.5
20260503050518 37 271 3.5 7.8 0.00 0.00 0.00 56 1010.4
20260503050035 37 288 2.6 6.1 0.00 0.00 0.00 57 1010.6
20260503045518 37 266 3.5 6.1 0.00 0.00 0.00 57 1010.5
20260503045020 37 275 2.6 7.8 0.00 0.00 0.00 57 1010.4
20260503044541 37 274 2.6 7.8 0.00 0.00 0.00 57 1010.5
20260503044021 37 30 2.6 7.0 0.00 0.00 0.00 57 1010.6
20260503043519 37 326 1.7 7.0 0.00 0.00 0.00 57 1010.6
20260503043035 37 301 2.6 7.0 0.00 0.00 0.00 57 1010.6
20260503042519 37 269 1.7 7.0 0.00 0.00 0.00 57 1010.6
20260503042019 37 288 3.5 6.1 0.00 0.00 0.00 57 1010.6
20260503041539 37 295 1.7 6.1 0.00 0.00 0.00 58 1010.6
20260503041019 37 285 3.5 6.1 0.00 0.00 0.00 57 1010.6
20260503040518 37 302 3.5 6.1 0.00 0.00 0.00 58 1010.5
20260503040037 37 278 2.6 7.0 0.00 0.00 0.00 58 1010.5
20260503035518 37 307 2.6 7.0 0.00 0.00 0.00 58 1010.4
20260503035023 37 275 3.5 8.7 0.00 0.00 0.00 58 1010.6
20260503034535 37 225 3.5 8.7 0.00 0.00 0.00 59 1010.6
20260503034018 37 276 2.6 7.0 0.00 0.00 0.00 59 1010.6
20260503033521 37 231 2.6 6.1 0.00 0.00 0.00 59 1010.6
20260503033031 37 321 2.6 5.2 0.00 0.00 0.00 59 1010.7
20260503032519 37 288 1.7 4.3 0.00 0.00 0.00 59 1010.6
20260503032017 37 261 1.7 4.3 0.00 0.00 0.00 59 1010.7
20260503031547 37 278 1.7 4.3 0.00 0.00 0.00 60 1010.7
20260503031019 37 275 0.9 2.6 0.00 0.00 0.00 60 1010.7
20260503030526 36 0 0.9 1.7 0.00 0.00 0.00 59 1010.7
20260503030035 36 300 0.0 0.9 0.00 0.00 0.00 61 1010.8
20260503025520 37 354 0.0 1.7 0.00 0.00 0.00 60 1010.8
20260503025019 37 274 0.0 1.7 0.00 0.00 0.00 60 1010.9
20260503024536 37 220 0.0 1.7 0.00 0.00 0.00 60 1010.9
20260503024019 37 304 0.0 1.7 0.00 0.00 0.00 60 1010.8
20260503023520 38 220 0.0 10.4 0.00 0.00 0.00 59 1011.1
20260503023040 38 304 0.9 10.4 0.00 0.00 0.00 59 1011.2
20260503022519 38 205 4.3 10.4 0.00 0.00 0.00 60 1011.2
20260503022020 38 262 3.5 7.8 0.00 0.00 0.00 61 1011.0
20260503021540 38 240 3.5 7.8 0.00 0.00 0.00 62 1011.1
20260503021021 38 258 4.3 7.8 0.00 0.00 0.00 60 1011.1
20260503020520 39 220 2.6 5.2 0.00 0.00 0.00 55 1011.0
20260503020041 39 243 1.7 5.2 0.00 0.00 0.00 49 1011.0
20260503015521 40 243 1.7 3.5 0.00 0.00 0.00 48 1011.0
20260503015018 40 220 1.7 5.2 0.00 0.00 0.00 48 1010.9
20260503014536 40 278 1.7 5.2 0.00 0.00 0.00 49 1010.9
20260503014018 40 255 1.7 5.2 0.00 0.00 0.00 50 1010.9
20260503013523 40 271 1.7 4.3 0.00 0.00 0.00 49 1010.9
20260503013039 40 272 1.7 3.5 0.00 0.00 0.00 50 1010.8
20260503012517 40 312 0.9 3.5 0.00 0.00 0.00 49 1010.9
20260503012022 41 281 0.9 2.6 0.00 0.00 0.00 48 1010.8
20260503011534 41 314 0.9 4.3 0.00 0.00 0.00 47 1010.9
20260503011021 41 230 1.7 4.3 0.00 0.00 0.00 46 1010.8
20260503010519 42 287 1.7 5.2 0.00 0.00 0.00 45 1010.8
20260503010039 42 288 1.7 7.8 0.00 0.00 0.00 44 1010.8
20260503005519 42 311 1.7 7.8 0.00 0.00 0.00 44 1010.9
20260503005022 42 240 1.7 5.2 0.00 0.00 0.00 43 1010.8
20260503004536 42 276 1.7 6.1 0.00 0.00 0.00 42 1010.8
20260503004018 43 236 1.7 7.8 0.00 0.00 0.00 41 1010.8
20260503003518 43 288 2.6 9.6 0.00 0.00 0.00 40 1010.8
20260503003036 43 300 2.6 9.6 0.00 0.00 0.00 38 1010.8